GFSCGP_850_spd_129.txt.gz
Wind_Speed
23 16 22 29 26 23 23 23 24 13 16 18 16 17 16 16 26 17 21 21 22 18 11 10 11 12 12 15 17 18 20 21 22 18 18 17 19 19 19 21 23 22 20 17
18 22 22 20 19 22 22 12 20 7 12 17 16 18 18 16 28 21 24 22 14 8 10 5 5 5 8 12 14 20 24 24 26 19 19 17 16 17 18 18 23 21 20 18
19 22 20 20 22 20 19 16 15 15 19 19 18 20 18 20 17 18 11 1 6 7 4 1 1 1 3 6 8 9 18 21 23 21 18 16 15 16 17 18 20 21 21 20
18 19 24 20 22 20 16 14 19 13 14 13 16 8 16 19 17 14 14 13 11 4 2 3 3 4 3 2 3 6 8 10 16 17 18 17 17 16 18 19 19 19 20 19
17 19 23 19 18 17 20 20 15 11 14 13 19 8 13 22 18 20 14 3 6 4 3 4 6 6 6 6 4 1 3 5 10 12 15 17 18 15 15 16 17 22 18 18
20 21 14 17 19 19 22 5 12 15 14 14 17 12 11 18 20 20 13 9 5 4 5 6 7 7 7 7 8 8 6 4 2 4 6 12 11 13 13 16 13 13 15 15
13 13 15 16 18 15 17 13 10 10 11 11 21 17 7 12 13 21 17 13 10 7 7 6 7 9 10 11 11 11 12 12 11 9 6 2 6 10 10 11 11 14 14 13
14 16 20 11 15 14 21 18 12 11 13 15 8 7 9 12 12 12 14 10 8 7 6 6 5 6 8 10 11 12 12 12 11 11 10 8 5 2 2 6 3 10 11 12
16 15 16 17 17 17 15 18 19 10 10 4 10 12 9 14 12 12 12 11 7 4 4 2 4 2 2 4 7 7 7 8 8 7 6 3 0 2 5 7 9 8 11 13
11 9 15 11 12 13 12 13 9 7 8 11 8 15 8 19 15 14 12 10 7 5 4 2 2 1 2 2 2 4 5 4 5 5 5 5 7 9 12 13 15 17 20 22
10 10 11 14 14 14 12 11 11 11 10 10 10 6 14 13 15 13 14 11 7 4 4 4 3 3 3 1 1 2 3 4 5 6 7 7 8 9 11 14 15 16 20 22
9 9 13 18 16 5 12 19 14 8 12 8 7 5 4 2 12 15 14 11 2 3 5 6 4 4 4 3 4 4 6 6 7 9 10 11 12 13 14 15 17 19 21 22
8 6 9 5 8 9 10 10 6 5 1 9 8 5 7 2 6 6 6 7 8 4 8 7 6 5 4 5 5 6 7 8 10 11 13 15 16 17 18 19 21 22 23 24
2 5 11 5 1 8 16 15 9 11 6 9 14 10 13 9 6 8 9 9 12 7 10 10 8 7 6 6 7 9 11 12 14 16 18 19 20 21 22 23 24 24 24 26
6 7 7 2 6 1 11 12 14 16 15 13 9 8 2 5 2 6 10 11 11 11 9 8 8 7 9 10 12 14 15 16 17 19 21 22 23 24 24 25 26 27 27 28
10 6 14 18 7 8 9 10 11 12 12 11 10 11 7 7 5 6 3 2 7 6 6 8 10 11 13 15 15 17 19 20 20 22 24 25 26 26 26 28 29 30 30 31
9 5 6 11 6 4 8 14 15 12 11 9 10 7 6 2 4 5 5 5 7 8 8 12 12 14 14 16 18 20 22 23 24 26 27 28 28 29 29 29 29 31 32 33
10 8 7 5 5 8 9 7 6 3 9 4 7 7 2 6 7 7 9 12 9 8 10 12 15 17 17 18 21 23 24 25 26 27 27 28 28 30 30 30 31 33 32 30
6 8 2 4 9 1 13 4 2 2 8 3 6 4 5 9 9 12 6 5 6 10 12 16 18 20 21 22 24 24 25 26 26 28 28 29 29 31 31 31 31 31 32 36
6 3 4 5 3 4 11 8 4 2 5 5 2 4 8 9 8 3 6 10 12 14 17 18 21 22 24 24 24 25 27 27 28 29 29 30 29 30 31 31 32 31 30 41
9 6 8 5 3 1 11 6 1 6 5 3 4 8 12 10 13 13 15 15 18 20 21 23 25 26 27 26 26 28 29 29 29 29 29 29 31 31 29 29 33 45 40 39
8 7 6 3 4 5 10 6 4 7 1 5 10 13 16 16 17 17 18 17 17 20 24 26 28 29 28 27 28 29 30 29 28 30 31 29 29 29 38 40 37 34 33 34
5 5 5 5 2 8 6 8 5 4 7 9 11 13 15 14 15 17 18 19 22 24 26 27 28 29 28 27 27 30 29 28 31 30 30 30 38 38 32 32 31 31 30 31
2 5 1 4 10 5 3 2 4 6 7 9 10 10 11 14 17 20 22 24 27 27 27 27 28 28 29 28 26 25 28 28 29 31 35 40 36 33 30 28 29 30 30 29
5 9 6 6 9 5 4 5 5 5 6 6 9 13 14 17 20 23 25 26 27 27 26 25 27 28 26 25 27 26 26 31 35 41 36 35 33 30 29 28 28 29 27 26
6 1 4 5 10 7 8 4 4 7 6 8 11 15 16 18 20 22 23 24 24 25 26 25 24 27 28 26 26 26 28 35 35 34 35 33 30 28 29 29 31 29 28 25

GFSCGP_850_spd_132.txt.gz
Wind_Speed
28 17 22 27 24 25 24 21 25 23 15 20 19 16 13 17 17 21 20 21 25 24 23 5 3 8 11 10 8 9 18 16 18 17 14 17 16 18 17 20 20 25 28 27
17 20 24 22 26 27 28 26 23 20 20 18 15 14 13 16 16 29 19 14 18 32 23 9 8 11 12 13 16 17 18 22 20 22 23 18 17 13 20 19 23 25 29 31
17 20 21 25 28 26 23 25 22 14 12 14 9 14 13 14 22 28 20 17 15 12 16 13 5 7 8 10 9 9 14 21 22 21 16 20 24 18 19 21 23 26 27 20
20 22 25 23 21 20 22 24 22 20 16 12 17 13 18 16 18 19 32 29 22 16 7 6 5 1 3 4 5 6 11 8 12 19 23 15 20 21 19 18 26 26 25 23
21 21 24 20 23 22 22 23 11 15 13 16 20 14 10 20 16 17 12 16 19 17 11 7 3 0 2 3 4 3 0 3 7 8 16 19 13 17 16 16 19 19 23 21
22 21 21 23 21 21 21 14 16 17 11 12 19 15 14 17 21 20 18 12 11 9 11 7 6 4 6 7 8 9 7 4 1 6 6 13 15 10 17 17 10 16 20 20
18 21 19 18 19 15 15 11 8 9 10 13 18 16 14 12 23 22 19 17 12 6 10 5 7 11 10 10 10 11 9 8 7 6 6 3 7 9 10 12 11 9 9 13
16 13 22 15 16 21 22 18 11 17 11 16 18 17 15 12 24 26 26 24 21 17 14 13 8 11 10 9 10 9 10 9 8 9 4 2 6 5 4 5 2 3 5 4
17 12 18 17 18 16 19 18 20 11 14 10 11 13 13 19 19 24 24 24 23 16 14 14 12 11 10 6 5 4 4 4 6 4 4 1 1 3 5 4 7 9 7 9
9 9 18 15 14 17 17 13 16 9 16 4 4 14 11 18 19 20 18 19 14 11 10 9 5 7 3 3 4 3 3 3 3 3 4 6 7 10 12 13 14 17 20 22
11 10 14 13 13 19 10 13 13 14 11 10 4 5 8 16 15 15 17 20 17 10 8 9 9 6 4 5 2 1 2 3 5 6 8 9 12 13 13 16 17 17 19 21
12 6 13 16 16 16 16 14 11 7 12 7 5 8 3 4 10 11 18 18 15 9 2 4 1 2 1 1 4 6 4 7 7 8 10 12 14 14 16 19 21 21 23 24
12 1 8 7 9 15 10 13 11 12 4 9 6 1 9 11 14 15 12 8 8 10 8 8 4 7 8 6 6 7 7 9 10 11 13 15 17 19 21 22 24 26 27 28
5 3 9 7 6 9 16 16 8 5 2 7 11 15 18 6 12 10 10 10 7 11 8 6 7 4 6 7 8 9 10 12 13 16 18 20 22 24 27 29 28 27 27 27
3 4 2 3 5 8 8 10 12 10 6 9 13 7 9 6 8 2 3 3 6 10 10 5 5 7 6 7 9 12 13 14 17 20 21 23 26 26 26 28 29 31 31 33
4 3 6 1 6 1 4 7 10 10 10 6 10 14 21 22 7 2 3 4 2 7 5 3 7 9 10 10 9 11 14 16 18 23 25 26 28 29 28 29 30 31 31 30
6 4 3 3 10 8 11 14 11 10 9 11 10 1 6 9 5 2 4 2 4 6 5 3 5 6 7 12 13 14 16 20 23 24 26 27 28 29 29 29 28 28 29 30
11 9 10 7 17 7 8 10 6 8 10 9 5 3 8 4 3 4 5 11 12 14 10 8 8 9 12 14 16 18 20 22 24 26 27 28 28 29 29 30 32 31 32 35
11 13 3 4 6 9 11 5 4 4 9 12 9 5 10 13 8 17 13 13 10 9 9 9 12 14 15 16 20 22 21 23 24 26 28 29 28 29 29 29 33 38 41 45
6 6 2 3 3 6 9 8 6 1 8 8 6 8 11 9 3 9 9 8 8 9 11 14 16 17 19 21 22 20 21 23 25 27 27 27 27 29 34 41 45 44 39 42
8 7 5 5 3 6 10 7 1 5 5 8 7 7 8 6 10 16 14 12 10 13 14 16 19 21 20 16 19 20 21 23 23 24 26 29 34 40 38 35 37 42 44 39
8 5 4 3 3 3 8 3 3 7 5 6 6 8 10 12 13 15 14 14 14 16 17 19 21 21 21 22 22 21 21 23 26 28 32 37 40 35 38 42 37 32 32 33
5 6 5 3 4 11 18 16 11 6 3 6 10 10 10 10 10 12 14 16 18 20 22 21 23 24 23 22 21 20 20 26 32 36 38 37 38 42 33 31 31 31 29 31
5 11 4 7 12 10 10 9 6 6 7 8 7 7 10 12 14 16 18 20 21 21 22 21 21 21 21 21 21 22 26 33 39 40 41 39 37 33 32 29 27 28 29 31
5 7 11 12 12 13 13 12 8 13 10 7 7 10 12 13 14 16 18 18 19 19 19 19 19 21 22 23 24 26 29 34 37 37 37 34 33 31 29 26 27 27 28 27
2 6 2 7 10 13 13 11 12 8 8 9 9 11 11 12 13 15 16 17 18 19 20 20 20 21 22 23 27 29 27 32 35 36 33 31 29 28 26 27 29 28 26 22

GFSCGP_850_spd_135.txt.gz
Wind_Speed
19 8 16 17 15 11 13 11 13 5 10 6 8 6 12 19 19 22 18 18 22 21 16 5 9 9 12 8 11 10 9 8 18 28 22 20 19 17 17 17 23 24 25 25
6 14 13 15 15 17 18 11 7 8 15 8 17 15 12 14 11 20 20 21 27 16 23 6 5 8 10 11 4 8 12 12 10 17 19 20 18 16 15 16 18 19 23 25
12 10 16 19 19 19 18 13 10 13 14 11 7 14 10 8 17 20 23 28 23 16 19 7 4 8 13 7 7 4 6 12 18 20 17 20 19 16 18 21 26 26 26 27
10 16 18 19 21 17 16 14 16 19 11 7 13 5 8 12 9 10 21 25 21 16 5 11 3 3 6 6 3 6 9 10 8 11 21 15 18 24 24 24 22 19 26 26
11 15 16 16 14 18 17 13 20 25 6 14 12 4 8 11 8 12 14 27 25 23 14 7 14 13 6 2 8 7 4 7 8 8 12 19 22 15 15 16 18 18 15 24
15 21 13 19 19 19 18 8 6 6 8 5 10 10 6 9 17 14 9 19 36 18 20 18 15 12 10 5 6 5 5 3 3 7 8 13 17 16 15 19 17 9 4 6
18 18 17 18 11 8 8 7 5 5 1 4 17 6 10 20 18 20 11 13 28 27 22 20 18 12 8 7 8 7 7 6 3 1 0 1 4 8 10 13 15 16 16 15
11 10 16 14 8 12 8 10 7 6 4 5 6 13 12 13 33 30 27 27 23 24 22 20 17 12 10 9 7 4 4 6 6 6 4 2 2 4 5 6 8 9 8 9
8 11 10 10 7 12 7 5 14 4 4 2 3 8 8 5 18 21 25 29 25 24 17 18 12 10 12 9 5 1 4 5 5 5 5 3 4 5 6 6 10 12 12 11
3 4 5 11 9 11 5 7 5 2 4 2 3 8 2 9 15 16 13 21 18 18 15 19 20 16 12 7 5 7 5 7 9 9 10 11 10 12 15 17 17 17 18 20
5 6 7 10 8 8 5 1 2 4 6 4 1 5 5 7 3 14 11 27 25 24 21 23 25 19 14 12 8 5 1 2 7 10 10 12 17 19 20 20 20 20 21 23
7 5 1 5 3 3 4 9 7 5 4 4 4 5 4 6 11 12 22 26 20 14 16 12 18 15 15 12 8 6 5 5 3 7 9 12 15 19 21 23 26 27 28 28
7 5 4 7 6 4 2 4 4 4 4 6 8 4 3 11 5 11 20 19 19 13 7 7 12 8 6 7 3 3 3 4 7 11 15 16 19 24 27 29 31 31 30 30
9 5 11 4 1 1 5 3 2 6 4 0 5 5 6 6 2 10 5 20 4 7 16 14 11 7 7 7 6 5 5 8 12 15 17 20 22 25 28 30 31 31 30 32
6 4 5 2 2 6 8 10 2 5 6 4 5 8 5 10 4 16 20 18 11 10 7 10 10 6 4 2 3 5 6 9 12 16 20 22 25 29 31 31 30 31 31 30
5 5 10 6 7 5 10 6 5 5 4 7 6 3 5 21 25 14 7 15 9 4 7 11 8 7 4 1 2 6 10 12 13 17 21 26 27 29 33 31 30 29 28 29
5 5 3 3 2 5 4 7 4 5 4 8 2 6 2 8 8 12 22 28 26 20 22 20 16 12 9 8 9 11 13 16 19 22 24 26 29 28 26 28 30 33 36 38
6 5 3 3 4 3 4 6 2 5 9 6 11 10 14 21 28 32 27 26 23 19 15 12 11 9 10 12 15 17 20 22 20 19 21 24 24 25 29 32 36 40 43 46
9 6 4 4 2 5 3 4 4 15 12 12 16 14 16 22 32 23 20 19 15 13 11 10 11 14 16 20 22 19 19 18 18 20 21 23 25 29 34 39 43 46 50 55
5 11 5 4 4 6 3 5 7 6 6 12 18 13 13 22 10 4 14 13 12 10 11 16 17 17 20 11 8 11 12 14 18 19 22 25 30 35 39 43 47 51 46 45
8 4 6 3 4 3 5 6 8 5 4 16 24 24 25 9 10 12 10 11 9 10 11 11 10 10 14 14 13 12 12 15 18 22 26 30 34 39 44 48 45 42 39 33
5 4 2 2 5 3 12 9 5 6 17 24 24 21 18 15 14 13 14 16 16 17 17 16 14 13 14 16 17 17 19 22 27 30 34 38 42 44 42 39 37 31 30 29
3 5 4 4 5 11 26 22 19 21 23 21 20 17 15 15 15 16 17 18 18 18 16 15 15 15 18 22 24 26 29 33 37 40 42 42 38 35 33 30 29 27 26 27
7 8 5 9 8 14 23 26 25 23 21 18 16 16 15 14 16 16 17 16 14 15 17 19 21 23 25 28 32 33 35 37 38 37 34 34 33 30 26 24 22 24 24 27
3 6 6 11 14 24 25 26 24 20 17 16 16 14 14 13 14 14 14 13 15 17 20 23 25 27 28 30 31 30 31 32 33 32 31 30 28 25 23 21 22 23 22 21
5 1 6 3 10 20 20 22 19 20 16 15 12 12 12 11 12 10 12 15 19 20 19 20 23 26 26 27 27 29 29 28 28 28 26 25 24 23 22 23 23 19 20 21

GFSCGP_850_spd_138.txt.gz
Wind_Speed
14 5 14 11 6 2 1 4 9 3 9 6 7 6 6 15 10 12 15 15 11 10 2 18 18 17 15 11 15 22 32 34 33 23 28 33 31 34 33 31 29 30 27 25
4 10 7 7 8 8 8 6 7 7 7 6 6 8 8 8 10 19 21 14 14 11 11 22 23 22 17 14 12 13 16 17 25 32 31 28 27 26 22 17 15 18 27 25
6 4 10 9 9 11 10 8 6 4 7 4 7 5 7 6 14 20 27 21 17 15 21 19 19 20 23 22 18 14 12 13 13 20 27 28 28 27 24 20 20 22 27 24
5 9 15 13 13 12 13 6 11 8 4 5 7 5 6 7 11 9 26 24 19 20 16 22 20 19 19 19 18 15 12 14 17 18 22 19 22 22 16 20 20 21 18 22
9 12 13 13 15 14 9 8 9 9 7 4 2 3 7 10 13 12 17 27 25 19 14 24 19 19 15 10 4 2 1 4 5 6 10 16 13 13 14 19 22 17 14 16
9 7 9 14 11 13 14 4 4 2 5 6 9 8 6 6 18 16 11 28 27 18 24 24 22 20 15 11 8 5 5 4 2 4 5 7 10 12 14 16 16 13 16 17
10 16 9 7 7 5 4 6 1 1 3 5 11 5 12 8 13 15 14 23 26 19 30 29 24 17 13 8 8 8 8 5 3 3 3 4 4 5 8 9 9 9 7 7
7 6 14 10 10 10 7 8 5 5 2 7 2 7 13 10 22 18 23 22 22 33 33 26 19 15 9 5 6 5 5 6 6 6 6 5 6 7 9 10 9 8 6 5
9 8 5 13 13 13 5 5 9 6 1 2 3 5 8 13 15 16 23 29 33 38 30 23 18 12 9 8 5 2 2 3 4 6 7 8 9 11 13 14 15 14 14 13
4 4 4 5 10 6 10 7 5 2 3 4 1 4 5 10 17 8 18 28 36 34 30 24 18 14 13 11 9 5 3 2 4 7 10 12 13 15 18 18 19 21 21 21
3 4 6 4 2 8 3 4 6 4 4 5 3 5 4 7 13 5 6 29 35 31 29 25 20 17 13 12 10 8 4 2 1 3 7 13 19 24 26 26 27 28 29 28
7 4 4 5 5 4 6 8 7 5 3 2 2 5 4 6 10 11 8 24 27 28 27 26 22 17 16 14 14 10 8 7 7 6 7 11 16 20 22 29 30 29 30 29
5 1 3 8 6 6 6 3 5 5 4 4 4 3 1 5 7 15 17 11 26 23 20 23 18 17 19 18 15 14 14 10 7 7 11 15 19 21 24 27 29 31 31 30
11 4 8 7 4 2 4 7 5 5 4 6 6 9 9 14 9 8 13 14 4 16 21 24 22 23 24 17 14 12 7 6 9 12 15 18 19 24 27 29 31 34 35 34
6 4 3 9 9 3 2 5 5 3 7 4 7 12 10 9 9 16 4 8 25 6 11 19 18 18 15 12 8 7 9 8 9 12 16 20 23 28 31 33 37 37 36 36
3 3 4 6 7 7 3 3 4 4 8 7 8 4 4 10 22 19 10 10 21 12 14 17 16 13 10 6 3 3 6 8 13 18 22 26 29 29 33 35 37 38 39 39
4 6 4 2 1 4 4 4 3 4 2 8 5 8 11 8 11 16 18 20 25 25 19 15 11 8 5 6 8 12 15 17 19 21 20 22 26 28 30 32 35 38 40 42
6 5 3 3 2 5 5 3 6 14 13 10 18 18 19 18 24 24 24 25 23 19 15 11 7 8 8 9 11 12 11 12 16 20 21 22 24 27 29 32 35 39 42 46
10 5 4 4 3 1 2 3 6 16 9 9 18 19 27 27 32 24 21 19 16 13 11 10 8 8 9 11 9 9 10 11 15 19 21 23 26 29 33 37 41 45 49 52
8 8 6 3 5 4 5 5 20 12 6 7 17 11 8 6 9 1 12 11 11 11 10 6 5 4 5 6 9 13 15 17 19 22 25 27 30 34 39 43 47 50 49 45
4 3 6 4 3 2 1 5 2 6 6 10 24 20 20 13 13 18 19 18 13 11 8 7 9 11 11 12 15 17 19 21 25 28 31 34 38 41 44 46 45 42 37 34
4 5 3 4 3 3 3 6 7 13 19 26 27 28 31 28 24 20 15 12 10 9 10 12 14 16 19 22 24 25 28 31 34 37 40 42 42 42 40 37 35 30 26 25
3 5 5 3 3 3 21 29 35 34 31 28 29 25 25 24 21 16 15 13 12 12 14 16 19 22 24 27 30 33 34 36 37 38 38 36 34 31 28 27 24 22 20 22
4 3 6 6 6 17 28 33 33 31 31 26 22 20 17 20 14 13 11 13 15 18 21 24 26 28 29 30 30 30 31 32 32 32 29 27 26 24 21 18 17 19 20 21
1 5 8 13 14 24 21 31 32 30 24 22 19 16 15 10 13 11 12 15 17 20 22 24 25 26 27 28 30 32 29 28 27 25 23 22 21 20 19 16 17 19 18 18
4 11 5 4 11 21 17 27 24 24 22 18 17 17 14 9 10 10 13 15 17 18 20 21 22 25 27 28 27 25 23 23 23 22 21 20 20 18 19 20 18 15 18 19

GFSCGP_850_spd_141.txt.gz
Wind_Speed
12 4 16 10 5 0 5 6 3 3 7 4 6 5 7 9 7 11 8 6 7 6 8 9 14 17 19 18 17 19 19 21 33 29 23 28 29 33 35 32 30 28 30 28
5 9 7 6 7 5 1 4 5 2 5 7 5 7 8 8 7 12 11 7 5 6 12 17 20 22 21 16 16 18 12 12 21 33 38 35 30 26 29 30 29 29 30 30
7 5 10 10 8 9 4 5 2 2 4 2 6 5 3 6 10 11 18 14 6 10 17 22 24 25 22 19 16 17 15 11 14 19 25 32 37 34 29 29 28 27 28 29
4 7 16 6 10 7 5 7 5 4 2 5 6 6 5 6 9 7 22 15 14 13 15 22 25 25 23 20 19 16 14 14 17 18 19 21 20 23 29 28 30 29 23 21
8 12 11 11 6 8 5 6 6 5 4 3 3 3 7 0 10 15 12 30 19 16 16 26 27 28 24 21 18 16 15 14 15 15 13 12 13 10 13 16 18 21 23 21
7 10 8 9 7 9 7 4 1 3 4 2 6 5 4 6 7 8 10 26 24 16 16 30 31 28 26 21 17 15 14 11 8 6 6 7 7 5 7 7 9 10 11 13
4 5 4 5 5 4 5 6 0 1 1 6 4 1 7 9 8 10 12 26 22 20 30 37 33 29 26 22 20 18 14 14 10 8 9 11 12 11 10 10 9 8 9 10
5 2 8 5 7 7 6 8 5 4 4 2 2 6 6 0 6 13 21 19 20 31 40 40 35 30 26 23 21 20 17 16 12 10 10 9 8 8 9 10 12 13 14 15
5 3 1 7 5 10 5 5 9 5 4 3 2 7 1 7 11 14 6 23 33 42 45 40 33 27 23 22 19 14 9 8 7 5 5 7 9 12 17 18 18 20 21 21
2 2 6 5 6 2 7 7 5 3 6 2 4 4 4 7 9 10 1 16 31 42 43 37 32 27 23 19 15 8 8 8 5 1 4 11 11 13 18 20 21 26 25 26
3 3 5 5 6 10 2 3 5 4 5 6 2 5 4 2 5 9 3 10 30 46 41 35 31 27 22 17 12 12 10 5 3 5 8 11 15 16 18 19 21 26 27 30
7 4 3 5 3 6 7 9 7 5 4 3 4 5 3 3 4 10 5 10 21 36 35 32 29 25 20 16 15 12 8 5 6 7 8 9 10 13 16 18 21 25 28 31
6 2 2 5 6 4 4 2 5 6 4 5 5 5 1 4 9 12 16 14 17 27 27 25 24 21 18 16 15 11 8 6 8 8 9 9 11 13 17 19 24 27 29 29
10 3 6 6 5 3 3 4 3 7 4 5 5 3 5 8 8 6 13 24 15 15 23 22 21 20 19 17 13 12 10 10 10 9 8 12 16 18 21 24 27 30 28 29
7 5 2 5 4 5 3 3 2 4 6 6 8 8 7 5 13 9 5 20 21 9 14 16 14 15 15 12 11 11 9 7 6 9 13 15 17 20 21 23 24 25 26 28
3 4 4 3 1 3 6 6 6 5 5 6 7 2 2 11 9 11 6 18 26 19 19 17 15 15 13 10 6 3 2 6 9 12 16 18 18 19 21 24 25 28 30 32
3 6 4 1 3 3 4 3 3 6 5 4 5 6 7 8 8 8 13 13 18 16 15 16 15 13 10 6 3 3 7 10 13 15 16 17 19 21 24 26 28 32 36 40
6 5 3 3 3 1 3 11 18 14 8 6 12 9 11 15 20 21 19 24 24 16 9 10 10 7 4 0 4 6 9 11 12 15 18 20 23 26 29 32 36 40 44 47
4 6 4 5 3 3 3 4 6 5 5 7 14 16 25 28 34 21 17 17 14 10 10 10 8 5 2 2 2 4 7 11 15 19 23 26 29 33 37 40 44 46 47 45
4 6 5 3 5 5 4 1 22 7 3 4 15 18 21 13 7 2 19 17 16 14 10 7 4 3 4 7 9 12 16 20 24 27 30 33 36 39 42 43 43 41 38 36
3 4 5 4 4 2 4 2 1 4 7 13 18 13 17 5 11 20 19 17 13 9 6 4 6 10 13 16 19 22 25 28 31 34 36 38 39 39 37 36 34 33 30 27
4 5 2 3 4 2 3 2 3 11 19 27 26 29 33 30 25 19 14 11 6 6 8 10 14 17 20 23 26 28 29 31 32 34 34 34 33 32 30 29 27 24 22 21
3 4 6 2 1 4 3 18 30 31 33 26 34 29 31 26 19 13 9 6 6 8 11 14 17 19 21 23 25 27 28 30 32 31 30 29 27 25 23 23 21 20 19 22
3 2 5 4 6 13 24 33 38 36 35 30 28 25 19 21 14 10 7 6 8 11 14 17 18 19 21 23 25 26 27 27 27 27 25 23 23 21 19 17 17 18 19 20
1 5 8 10 9 24 18 31 36 34 31 28 23 19 17 14 13 8 7 7 10 12 14 16 18 20 22 23 23 23 24 24 24 22 21 20 20 19 18 17 19 19 16 17
2 10 6 5 21 18 18 31 32 32 28 24 23 21 16 10 10 7 7 8 10 12 14 17 19 20 22 22 21 21 21 21 21 21 20 19 19 19 20 22 22 17 16 17

GFSCGP_850_spd_144.txt.gz
Wind_Speed
7 4 12 8 4 3 8 10 6 4 2 5 6 5 5 15 11 11 13 8 8 8 8 10 12 12 16 19 20 20 18 17 22 25 26 25 27 13 17 19 20 18 22 23
4 7 6 8 6 2 5 8 5 1 5 3 5 6 7 8 11 19 16 14 11 11 12 12 15 18 22 23 20 18 16 17 18 20 21 26 26 28 30 25 28 19 19 21
6 5 10 7 4 4 2 7 6 4 4 3 6 4 5 5 6 11 14 16 13 15 14 15 17 19 22 22 20 18 14 12 13 14 14 16 18 22 25 27 23 22 22 23
5 4 13 9 7 6 4 5 5 8 5 4 3 4 5 6 8 6 14 17 16 18 18 18 21 20 20 18 16 16 15 15 14 10 10 12 13 15 16 15 16 17 18 21
6 8 12 8 7 8 5 6 6 3 4 4 1 3 6 3 7 9 11 17 18 20 23 22 20 20 18 17 16 13 10 9 7 7 8 9 8 5 4 7 9 10 12 16
5 6 9 8 10 11 6 6 6 5 3 1 6 5 4 5 6 5 12 22 22 19 25 25 23 24 21 17 14 12 9 6 5 5 3 3 1 4 3 5 7 10 11 11
3 4 4 11 9 4 6 7 2 1 1 5 4 4 7 6 3 5 9 11 10 17 23 27 29 26 24 20 15 13 10 9 5 2 3 5 8 9 9 11 11 11 12 13
5 3 8 6 9 8 6 8 5 4 4 2 4 5 6 2 2 5 8 13 10 22 29 34 35 32 27 20 17 17 15 12 7 5 6 7 8 9 12 14 14 16 19 20
4 2 3 9 5 8 4 5 8 6 3 4 3 5 5 4 5 11 13 8 18 28 37 39 40 33 29 25 23 20 17 14 12 10 9 8 10 10 11 13 19 21 21 23
5 6 7 4 7 2 9 6 4 3 4 3 4 3 5 3 5 8 8 9 15 26 38 43 39 35 30 27 24 21 16 13 12 9 5 7 9 10 10 14 17 20 23 25
2 4 1 6 6 8 3 3 5 5 4 5 1 5 5 6 3 7 10 8 19 29 37 43 38 34 30 27 24 20 17 14 12 7 2 2 6 10 11 12 16 18 20 23
3 4 3 4 0 5 7 9 7 5 4 0 4 6 3 5 6 6 6 12 21 28 37 41 36 31 30 27 24 20 17 14 11 8 5 5 5 6 8 11 15 18 21 24
6 1 3 5 5 4 4 4 5 6 3 5 6 5 2 3 3 7 3 18 26 32 35 34 32 30 27 25 22 19 16 14 11 8 6 4 6 8 11 14 18 21 23 25
10 3 6 5 6 4 4 4 4 6 4 5 6 4 4 2 4 9 12 16 25 31 30 30 29 27 24 20 18 16 16 13 9 6 4 7 10 13 16 19 21 20 21 23
5 5 3 2 2 3 2 8 8 6 5 7 7 9 8 9 8 9 17 21 24 22 21 20 20 19 18 16 14 12 10 9 9 8 9 12 15 17 18 19 20 22 24 27
3 2 3 5 3 4 5 6 9 4 4 1 6 2 3 10 17 12 26 25 30 27 24 21 19 18 16 15 13 12 10 9 9 11 13 17 18 18 19 21 24 27 30 32
4 6 3 3 2 2 4 4 5 5 5 4 3 2 6 5 12 12 24 29 30 29 25 23 19 17 13 10 6 5 7 9 12 14 15 17 19 21 24 28 31 34 37 41
6 6 3 4 3 2 3 4 6 13 4 1 6 7 12 18 22 20 15 21 17 18 18 18 13 9 6 2 3 5 8 11 13 15 19 23 26 29 32 36 39 43 43 41
3 5 4 5 3 1 2 3 4 3 2 2 9 14 23 30 35 21 18 21 22 18 17 16 11 6 2 2 5 7 10 14 18 22 26 29 33 37 40 41 41 38 36 32
6 4 4 3 5 7 6 3 10 5 2 5 12 15 21 9 4 2 19 21 21 17 14 10 6 1 4 8 11 15 18 22 26 29 32 34 36 36 36 34 31 29 27 24
3 3 5 3 3 5 3 4 5 6 5 18 19 13 10 5 10 22 19 18 14 12 8 5 4 8 13 17 20 23 25 26 28 29 30 31 31 30 27 26 23 22 20 18
5 5 2 3 4 2 4 1 6 7 22 25 20 21 32 36 30 23 17 14 10 5 4 6 10 13 16 19 22 23 24 25 26 27 27 26 24 22 21 20 18 16 16 18
2 4 6 3 3 5 3 1 13 29 34 24 26 28 34 32 25 18 14 9 5 4 7 9 12 14 16 18 21 23 23 24 24 23 22 19 17 16 15 16 16 16 17 19
2 3 4 3 6 6 16 24 27 33 32 29 31 32 27 28 20 16 10 6 4 5 8 10 13 14 16 18 19 19 20 21 20 20 18 17 17 16 15 15 16 18 17 19
2 4 5 5 4 17 18 27 34 33 32 31 26 22 19 17 15 10 8 5 5 7 9 11 13 15 17 18 18 18 19 19 19 19 18 17 17 18 17 16 17 18 16 16
2 5 4 4 17 15 11 27 32 33 29 26 23 21 16 10 11 8 8 8 8 10 11 12 14 15 17 19 20 21 21 20 20 19 19 19 19 19 19 21 22 17 16 14

GFSCGP_850_spd_147.txt.gz
Wind_Speed
14 10 20 26 21 11 19 18 11 13 6 12 14 11 6 13 11 13 10 11 10 11 9 10 9 8 11 16 20 20 16 15 14 14 15 16 17 15 12 13 16 15 12 13
10 15 14 12 14 9 14 19 14 11 10 11 10 14 5 9 14 16 15 14 14 12 9 9 10 12 12 16 18 18 15 12 14 15 16 15 14 17 18 16 17 14 13 13
15 12 10 14 13 11 11 19 22 12 9 3 10 9 9 7 9 11 13 11 11 12 10 10 11 13 16 17 16 14 12 12 13 11 9 9 7 7 5 4 6 7 9 12
8 9 18 16 13 10 9 10 17 19 12 11 8 12 9 12 12 11 16 13 15 14 13 12 13 14 15 16 15 13 13 13 10 8 6 4 3 3 3 7 8 10 13 13
6 15 20 21 21 12 5 6 13 16 15 9 10 8 14 6 17 17 15 17 19 18 20 17 16 18 16 14 14 13 10 9 6 4 1 2 2 4 8 9 11 10 9 9
4 13 14 12 16 16 7 6 8 6 6 11 14 14 13 15 13 10 13 16 17 20 24 23 20 19 17 14 11 9 9 8 5 3 4 4 6 9 9 10 10 10 10 11
5 10 7 10 19 17 14 14 7 8 7 6 8 8 10 8 9 11 13 9 11 16 22 26 25 23 22 19 13 12 9 7 7 8 10 11 12 10 8 8 9 10 12 14
8 6 13 15 20 12 17 17 6 7 9 8 5 9 6 10 4 5 9 10 11 17 22 31 30 25 24 21 19 15 9 10 10 8 10 11 10 9 8 10 11 12 12 14
5 4 15 19 13 15 19 12 5 5 2 7 6 3 4 4 7 6 7 9 14 19 24 27 28 28 28 25 20 16 15 12 11 10 9 8 9 8 8 9 10 12 15 17
5 8 13 17 16 6 16 15 8 2 8 6 5 4 6 11 11 7 6 7 10 15 20 24 26 30 29 26 23 20 16 14 14 13 9 5 5 4 6 9 11 14 17 20
2 4 10 13 10 14 13 12 5 3 1 7 4 3 5 7 4 5 8 10 7 14 20 23 25 28 29 27 23 20 17 16 16 13 9 4 1 3 6 9 12 15 19 21
1 5 12 18 2 15 13 15 9 9 8 1 1 2 2 4 2 6 10 8 5 13 21 25 26 30 28 24 24 21 18 16 14 10 7 5 6 8 10 12 16 19 21 23
7 3 10 10 6 6 13 8 9 7 2 8 5 2 2 3 1 4 6 3 8 15 21 25 29 30 28 27 23 19 17 14 11 10 10 10 11 12 13 16 20 22 23 25
8 3 4 8 9 8 8 12 13 13 5 6 8 6 7 7 3 2 1 5 10 16 20 22 22 22 23 22 20 18 15 13 13 13 12 13 14 16 18 20 22 23 25 26
1 3 4 5 3 3 8 17 18 17 14 9 12 10 7 8 4 5 8 12 14 17 19 19 19 21 20 18 16 16 15 16 14 12 13 16 18 20 20 22 24 25 27 30
0 3 2 4 4 4 4 9 11 10 8 6 4 4 5 14 12 12 15 19 19 20 20 21 21 20 18 16 15 16 14 12 11 13 15 18 20 21 23 24 27 30 33 37
4 5 3 4 1 7 6 8 10 6 5 5 6 7 15 14 15 14 15 23 21 21 20 21 20 17 16 15 13 11 10 9 11 13 17 20 22 24 27 30 34 37 40 43
8 5 2 4 4 6 3 1 6 5 5 3 8 15 16 18 18 18 16 21 22 22 25 22 20 17 15 10 8 6 7 9 12 16 19 23 27 31 33 36 37 39 37 35
1 5 4 5 4 2 1 5 7 6 3 4 11 17 23 25 23 17 13 16 20 22 23 20 16 12 7 4 2 5 9 12 17 22 26 29 32 33 33 33 33 31 30 26
5 5 4 4 5 7 5 7 4 3 4 11 17 19 27 23 9 5 11 16 19 19 18 15 11 5 1 4 8 12 17 20 23 26 28 29 28 29 30 28 25 23 21 19
4 3 6 4 3 2 2 6 6 6 1 19 25 27 21 7 8 24 18 18 17 14 11 7 3 2 6 10 14 17 20 22 23 24 23 24 25 24 21 20 19 18 18 17
6 7 3 3 3 5 4 5 7 6 19 23 23 19 22 30 29 23 19 16 12 9 6 4 5 9 13 15 17 18 19 20 20 21 21 21 19 17 17 17 16 15 16 17
4 2 6 2 2 4 3 3 1 13 25 19 25 24 34 31 25 20 17 13 10 7 6 8 9 11 13 15 16 16 17 19 19 19 17 16 15 14 14 15 15 15 17 17
3 2 4 6 5 7 7 11 16 20 25 22 25 27 26 31 23 19 14 10 8 7 8 9 11 12 14 14 15 16 17 17 16 16 16 15 15 13 13 13 14 16 16 16
1 7 8 5 7 14 11 14 23 29 28 28 25 24 24 24 19 15 13 10 8 8 9 9 10 11 12 13 15 16 17 17 15 15 15 15 15 15 14 13 13 13 12 12
1 5 4 4 15 11 15 17 26 31 29 29 29 24 18 15 16 13 12 10 9 8 8 8 9 10 12 14 15 16 16 17 17 16 16 16 15 14 14 15 15 13 13 10

GFSCGP_850_spd_150.txt.gz
Wind_Speed
27 17 22 29 26 25 25 25 29 25 18 27 22 18 13 21 17 18 18 19 19 18 13 9 8 11 14 16 18 17 16 13 11 9 8 8 6 7 4 6 11 11 14 16
16 19 22 23 22 24 25 25 19 21 15 20 23 21 14 23 19 18 17 16 17 15 12 10 7 9 11 14 17 18 15 14 12 11 11 8 8 9 12 13 15 16 16 14
20 18 19 22 19 14 18 23 16 21 17 19 22 20 20 15 26 31 24 16 12 14 13 11 10 9 10 11 14 14 16 13 12 11 10 9 8 8 3 3 3 3 4 5
16 18 10 17 22 18 16 19 18 19 21 16 19 16 22 20 17 18 24 21 20 14 10 9 9 9 10 11 12 12 12 11 8 7 8 9 6 7 6 4 3 4 5 5
11 18 17 20 21 18 10 15 19 15 18 16 20 14 24 21 19 18 22 23 16 14 12 11 9 8 8 9 10 12 11 11 9 9 9 9 8 8 8 7 8 7 9 9
10 20 22 16 16 12 12 20 17 17 11 13 15 18 17 23 24 22 22 20 20 18 16 13 9 10 9 11 11 12 12 12 13 11 10 9 10 12 12 9 7 6 6 8
13 18 15 21 19 13 13 20 11 14 13 11 18 14 14 21 22 24 23 24 22 19 19 18 14 12 13 14 15 16 16 18 16 16 16 15 15 13 10 10 8 7 5 7
16 15 14 19 24 20 21 21 15 19 15 12 12 11 9 9 2 13 20 23 21 19 20 21 22 19 16 17 18 20 19 20 21 20 19 17 14 11 10 8 6 5 5 9
9 11 14 21 20 17 23 16 4 2 16 13 10 5 3 6 13 13 16 17 17 19 20 21 24 23 21 21 20 20 21 22 21 20 18 16 12 8 4 3 5 6 9 8
4 18 14 17 20 20 22 18 8 6 10 10 12 15 6 15 15 16 16 18 18 16 18 20 24 23 22 21 21 20 20 20 20 17 14 10 6 3 1 3 6 9 13 16
7 13 14 19 14 22 15 16 13 6 3 7 7 9 7 13 11 14 14 10 9 14 18 21 24 24 23 23 22 21 20 19 17 14 11 8 5 4 5 6 8 12 16 18
1 9 15 19 14 17 14 16 14 6 8 3 1 8 5 5 7 5 7 5 4 9 15 21 24 24 25 25 24 21 19 16 14 13 10 8 7 7 9 13 15 18 20 22
5 12 15 16 10 13 17 18 16 11 7 8 5 7 7 7 6 4 1 1 4 8 15 20 24 24 24 24 21 18 17 14 12 10 9 10 10 11 13 18 21 23 24 24
7 8 11 9 15 15 16 16 17 12 8 10 8 12 10 9 6 3 2 3 6 9 15 20 22 24 22 20 18 16 13 10 8 6 5 8 11 15 18 22 24 25 27 29
4 9 8 8 17 18 18 18 17 16 13 9 7 7 2 9 5 4 5 7 9 12 14 20 23 22 20 17 16 14 11 8 5 4 6 12 15 17 20 23 25 28 31 31
5 4 8 10 11 13 14 19 19 19 15 11 7 2 6 12 10 10 10 14 14 15 18 20 23 21 18 16 14 11 8 5 5 5 6 12 16 20 24 26 29 31 31 33
7 5 6 8 9 12 11 12 14 16 15 11 10 5 15 12 12 13 16 17 17 20 19 20 19 17 16 14 10 8 5 4 5 7 11 15 19 22 23 26 28 29 31 31
9 6 3 7 7 12 8 2 3 9 7 3 3 14 17 17 18 18 16 20 20 17 17 17 17 15 12 10 7 3 3 5 8 10 13 17 21 23 25 26 26 27 27 25
6 9 3 5 9 3 7 5 6 9 8 3 12 17 23 25 28 19 16 16 19 19 16 18 18 14 11 6 2 1 5 9 13 16 20 22 23 24 24 23 24 22 20 18
7 8 7 6 9 7 6 9 4 2 8 13 16 19 24 25 9 8 16 18 18 18 17 15 10 8 3 0 4 8 11 14 17 19 19 19 19 19 19 18 18 16 15 15
9 10 11 9 8 5 5 8 8 8 3 16 19 24 24 8 6 26 20 18 16 15 13 10 8 4 1 5 7 8 10 12 15 16 16 15 16 17 15 15 15 15 14 16
12 9 8 9 10 9 8 9 8 6 13 17 19 23 21 25 29 26 21 18 15 13 10 8 7 4 3 4 5 6 8 12 14 15 14 14 14 14 13 15 14 14 14 15
8 5 8 5 4 5 3 5 7 8 17 19 21 20 26 29 27 24 20 16 13 10 9 7 7 6 7 8 8 7 11 14 14 13 12 13 14 13 13 13 13 13 15 15
4 4 4 9 5 8 7 9 12 16 20 21 23 26 26 29 24 22 18 15 12 9 8 8 7 7 8 9 9 10 13 14 13 12 12 13 13 13 12 12 13 13 14 15
1 8 8 5 7 12 10 14 19 24 25 27 25 25 26 26 22 18 16 14 12 10 8 8 8 7 8 8 10 13 14 14 14 14 14 14 13 13 13 12 14 13 11 16
6 5 5 4 20 4 19 21 23 28 29 28 29 26 21 21 20 17 15 14 12 10 8 8 8 7 8 9 11 13 14 15 15 15 15 15 14 14 13 14 13 13 14 12